Hourly Weather Roundup
Issued by NWS Central Illinois

Home | Current Version | Previous Version | Text Only | Print | Product List | Glossary On
Versions: 1 2 3 4 5 6 7 8 9 10 11 12 13 14 15 16 17 18 19 20 21 22 23 24 25 26 27 28 29 30 31 32 33 34 35 36 37 38 39 40 41 42 43 44 45 46 47 48 49 50
000
NZUS43 KILX 192310
HWRILX

AREA WEATHER ROUNDUP
NATIONAL WEATHER SERVICE, LINCOLN IL
600 PM CDT FRI SEP 19 2014


CITY           SKY/WX    TMP DP  RH WIND       PRES   REMARKS
BLOOMINGTON    SUNNY     75  53  46 S13       30.03F
CHAMPAIGN      CLEAR     73  48  41 SE9       30.04F
DECATUR        SUNNY     74  51  44 S7        30.04S
FLORA          SUNNY     75  55  50 SE5       30.04S
GALESBURG      SUNNY     74  56  53 S6        29.98S
JACKSONVILLE   SUNNY     77  57  50 S8        30.02S
LACON          SUNNY     73  52  48 S6        29.99S
LAWRENCEVILLE  CLEAR     75  55  49 E5        30.05S
LITCHFIELD     SUNNY     73  56  54 SE8       30.03S
$$


CITY           SKY/WX    TMP DP  RH WIND       PRES   REMARKS
LINCOLN        SUNNY     76  51  40 S9        29.99S
MACOMB         SUNNY     74  55  51 S8        30.01S
MATTOON        CLEAR     72  51  47 S5        30.04S
MT CARMEL AP   CLEAR     79  52  38 SE6       30.04S
OLNEY-NOBLE AP CLEAR     73  54  49 CALM      30.04S
PARIS          CLEAR     72  52  48 SE6       30.06S
PEORIA         SUNNY     75  54  47 S9        30.00S
PONTIAC        CLEAR     75  46  35 S9        30.01F
RANTOUL        CLEAR     76  43  30 S8        30.05S
ROBINSON       CLEAR     74  58  58 SE3       30.06S
SPRINGFIELD    SUNNY     76  54  46 S8        30.02R
TAYLORVILLE    SUNNY     72  54  53 S6        30.02S
$$

...REGIONAL REPORTS...


CITY           SKY/WX    TMP DP  RH WIND       PRES   REMARKS
CHICAGO O`HARE MOCLDY    77  44  30 S16       30.00F
KANKAKEE       CLEAR     71  51  48 S7        30.04S
MOLINE         MOSUNNY   74  54  49 S8        29.96S
MOUNT VERNON   SUNNY     79  55  44 CALM      30.04S
PITTSFIELD     SUNNY     76  56  51 S5        30.02S
QUINCY         SUNNY     74  57  55 S10       29.99S
ROCKFORD       PTSUNNY   72  49  44 S13       29.99S
$$


CITY           SKY/WX    TMP DP  RH WIND       PRES   REMARKS
BURLINGTON     SUNNY     74  56  53 S12       29.97S
CEDAR RAPIDS   MOSUNNY   73  60  63 S16G25    29.90F
DES MOINES     PTSUNNY   78  66  66 S20G25    29.85F HX  80
KIRKSVILLE     SUNNY     74  62  66 S13       29.98S
OTTUMWA        SUNNY     75  60  59 S12       29.92F
ST LOUIS       MOSUNNY   78  57  48 S7        30.01S
$$


CITY           SKY/WX    TMP DP  RH WIND       PRES   REMARKS
TERRE HAUTE    CLEAR     71  52  50 SE6       30.06S
EVANSVILLE     CLEAR     78  53  41 E5        30.03S
INDIANAPOLIS   PTCLDY    70  47  43 SE9       30.06F
LAFAYETTE      CLEAR     69  48  47 S3        30.05S
MADISON        PTSUNNY   73  50  44 S18G30    29.90F
MILWAUKEE      MOCLDY    68  52  56 S12       29.97S
$$




USA.gov is the U.S. government's official web portal to all federal, state and local government web resources and services.